W9KOZ-5 Weather Reports


Display with metric or nautical units.
time (UTC)temp
F
wind
direction
speed
MPH
gust
MPH
rain 1hr
in
rain 24hr
in
rain mn
in
humidity
%
barometer
mb
20260505121817 30 212 11.0 17.0 0.00 0.00 0.00 93 1013.0
20260505121534 30 189 11.0 17.0 0.00 0.00 0.00 93 1013.0
20260505120808 30 208 10.0 16.0 0.00 0.00 0.00 93 1013.0
20260505120300 30 212 11.0 16.0 0.00 0.00 0.00 93 1012.8
20260505115754 30 211 11.0 16.0 0.00 0.00 0.00 93 1012.7
20260505115248 30 194 11.0 15.0 0.00 0.00 0.00 93 1012.8
20260505114742 30 241 12.0 19.0 0.00 0.00 0.00 93 1012.8
20260505114236 30 221 13.0 19.0 0.00 0.00 0.00 93 1012.7
20260505113730 30 253 15.0 21.0 0.00 0.00 0.00 93 1012.6
20260505113224 30 215 16.0 21.0 0.00 0.00 0.00 93 1012.6
20260505112945 30 218 15.0 21.0 0.00 0.00 0.00 93 1012.6
20260505112212 30 189 15.0 20.0 0.00 0.00 0.00 93 1012.7
20260505111706 31 227 14.0 20.0 0.00 0.00 0.00 93 1012.6
20260505111200 31 205 13.0 20.0 0.00 0.00 0.00 93 1012.6
20260505110654 31 228 13.0 18.0 0.00 0.00 0.00 93 1012.7
20260505110148 31 216 13.0 17.0 0.00 0.00 0.00 93 1012.7
20260505102059 33 195 9.0 15.0 0.00 0.00 0.00 93 1013.1
20260505102039 33 222 10.0 15.0 0.00 0.00 0.00 93 1013.1
20260505101047 33 213 10.0 15.0 0.00 0.00 0.00 93 1013.1
20260505100542 33 223 10.0 15.0 0.00 0.00 0.00 93 1013.2
20260505100036 34 219 9.0 14.0 0.00 0.00 0.00 93 1013.2
20260505095752 34 208 9.0 16.0 0.00 0.00 0.00 93 1013.2
20260505095240 34 208 9.0 16.0 0.00 0.00 0.00 92 1013.4
20260505094517 33 213 9.0 15.0 0.00 0.00 0.00 92 1013.4
20260505094011 34 220 9.0 14.0 0.00 0.00 0.00 92 1013.4
20260505093958 34 211 9.0 12.0 0.00 0.00 0.00 91 1013.5
20260505093000 34 200 8.0 13.0 0.00 0.00 0.00 91 1013.5
20260505092454 34 208 7.0 13.0 0.00 0.00 0.00 90 1013.5
20260505092209 35 216 6.0 9.0 0.00 0.00 0.00 89 1013.6
20260505091441 35 218 6.0 8.0 0.00 0.00 0.00 88 1013.6
20260505090936 35 222 6.0 9.0 0.00 0.00 0.00 87 1013.6
20260505090655 35 231 6.0 9.0 0.00 0.00 0.00 87 1013.6
20260505085923 35 245 7.0 9.0 0.00 0.00 0.00 86 1013.6
20260505085417 35 241 7.0 10.0 0.00 0.00 0.00 87 1013.5
20260505084912 35 248 7.0 10.0 0.00 0.00 0.00 87 1013.5
20260505084406 35 241 6.0 10.0 0.00 0.00 0.00 88 1013.6
20260505083900 35 241 6.0 8.0 0.00 0.00 0.00 89 1013.8
20260505083353 34 257 5.0 7.0 0.00 0.00 0.00 90 1013.8
20260505082847 34 260 4.0 7.0 0.00 0.00 0.00 90 1013.9
20260505082607 35 270 2.0 6.0 0.00 0.00 0.00 90 1013.9
20260505081836 35 288 2.0 7.0 0.00 0.00 0.00 90 1014.0
20260505081330 35 284 3.0 7.0 0.00 0.00 0.00 90 1014.0
20260505080829 35 270 3.0 10.0 0.00 0.00 0.00 90 1013.9
20260505080517 34 293 5.0 9.0 0.00 0.00 0.00 92 1013.9
20260505080405 35 238 4.0 10.0 0.00 0.00 0.00 90 1013.9
20260505075919 34 289 5.0 9.0 0.00 0.00 0.00 91 1014.0
20260505074828 34 258 5.0 8.0 0.00 0.00 0.00 93 1014.0
20260505074554 34 335 5.0 8.0 0.00 0.00 0.00 92 1014.3
20260505073828 34 316 5.0 10.0 0.00 0.00 0.00 92 1014.2
20260505073327 34 330 6.0 10.0 0.00 0.00 0.00 92 1014.2
20260505072828 34 359 5.0 10.0 0.00 0.00 0.00 92 1014.3
20260505072328 34 330 4.0 8.0 0.00 0.00 0.00 92 1014.3
20260505071828 34 320 5.0 6.0 0.00 0.00 0.00 91 1014.3
20260505071327 34 344 5.0 6.0 0.00 0.00 0.00 91 1014.3
20260505071050 34 342 5.0 9.0 0.00 0.00 0.00 90 1014.3
20260505070327 35 354 4.0 9.0 0.00 0.00 0.00 90 1014.3
20260505065828 35 4 2.0 6.0 0.00 0.00 0.00 88 1014.3
20260505065328 35 23 2.0 5.0 0.00 0.00 0.00 86 1014.3
20260505065045 35 257 3.0 4.0 0.00 0.00 0.00 85 1014.3
20260505064812 35 274 3.0 6.0 0.00 0.00 0.00 86 1014.2
20260505063816 35 242 4.0 6.0 0.00 0.00 0.00 87 1014.2
20260505063309 35 258 4.0 7.0 0.00 0.00 0.00 88 1014.4
20260505062806 35 270 3.0 7.0 0.00 0.00 0.00 89 1014.7
20260505062304 35 277 2.0 4.0 0.00 0.00 0.00 89 1014.4
20260505061806 34 308 2.0 0.0 0.00 0.00 0.00 89 1014.6
20260505060204 34 354 8.0 11.0 0.00 0.00 0.00 90 1014.8
20260505055658 35 347 8.0 11.0 0.00 0.00 0.00 89 1014.8
20260505055152 35 359 7.0 11.0 0.00 0.00 0.00 88 1014.8
20260505054402 35 359 6.0 10.0 0.00 0.00 0.00 86 1014.8
20260505053633 36 4 6.0 9.0 0.00 0.00 0.00 84 1014.8
20260505053128 37 322 4.0 8.0 0.00 0.00 0.00 81 1014.8
20260505052847 37 332 4.0 8.0 0.00 0.00 0.00 78 1015.0
20260505052116 38 4 4.0 6.0 0.00 0.00 0.00 77 1014.8
20260505051828 38 359 5.0 7.0 0.00 0.00 0.00 77 1014.8
20260505051104 38 16 5.0 7.0 0.00 0.00 0.00 76 1014.8
20260505050558 38 13 4.0 8.0 0.00 0.00 0.00 76 1015.0
20260505050311 38 26 6.0 10.0 0.00 0.00 0.00 76 1014.8
20260505041458 36 343 7.0 12.0 0.00 0.00 0.00 82 1015.0
20260505040952 36 35 9.0 13.0 0.00 0.00 0.00 84 1014.8
20260505040710 36 23 9.0 13.0 0.00 0.00 0.00 83 1014.7
20260505035940 36 8 11.0 17.0 0.00 0.00 0.00 83 1014.6
20260505035652 36 20 12.0 17.0 0.00 0.00 0.00 83 1014.6
20260505034928 36 36 11.0 17.0 0.00 0.00 0.00 83 1014.6
20260505034422 36 343 11.0 16.0 0.00 0.00 0.00 82 1014.6
20260505033916 36 359 12.0 18.0 0.00 0.00 0.00 82 1014.4
20260505033410 36 32 14.0 21.0 0.00 0.00 0.00 82 1014.4
20260505032904 36 354 14.0 21.0 0.00 0.00 0.00 82 1014.4
20260505032358 36 4 13.0 19.0 0.00 0.00 0.00 82 1014.2
20260505031853 36 359 12.0 18.0 0.00 0.00 0.00 82 1014.2
20260505031346 36 349 12.0 17.0 0.00 0.00 0.00 82 1013.9
20260505030839 36 340 13.0 22.0 0.00 0.00 0.00 82 1013.9
20260505030334 36 4 14.0 22.0 0.00 0.00 0.00 82 1013.6
20260505030051 36 10 15.0 21.0 0.00 0.00 0.00 82 1013.6
20260505025322 36 4 15.0 21.0 0.00 0.00 0.00 82 1013.5
20260505025035 36 20 16.0 23.0 0.00 0.00 0.00 82 1013.8
20260505024310 36 354 16.0 25.0 0.00 0.00 0.00 82 1013.6
20260505023804 36 345 16.0 25.0 0.00 0.00 0.00 81 1013.8
20260505023259 37 9 17.0 26.0 0.00 0.00 0.00 80 1013.8
20260505023014 37 359 16.0 26.0 0.00 0.00 0.00 79 1013.6
20260505022511 37 349 15.0 23.0 0.00 0.00 0.00 79 1013.8
20260505021739 37 354 15.0 22.0 0.00 0.00 0.00 78 1013.8
20260505021234 37 349 16.0 24.0 0.00 0.00 0.00 78 1013.8
20260505020951 37 359 16.0 25.0 0.00 0.00 0.00 78 1013.8
20260505020222 37 4 14.0 25.0 0.00 0.00 0.00 78 1013.8
20260505015716 37 359 13.0 19.0 0.00 0.00 0.00 78 1014.0
20260505015210 37 340 13.0 19.0 0.00 0.00 0.00 78 1014.3
20260505014705 37 308 14.0 21.0 0.00 0.00 0.00 79 1014.0
20260505014158 37 333 14.0 25.0 0.00 0.00 0.00 79 1013.8
20260505013913 37 354 15.0 25.0 0.00 0.00 0.00 79 1013.6
20260505013146 37 337 17.0 28.0 0.00 0.00 0.00 79 1013.6
20260505012640 37 329 19.0 29.0 0.00 0.00 0.00 78 1013.6
20260505012134 38 359 20.0 29.0 0.00 0.00 0.00 77 1013.8
20260505011628 38 354 20.0 29.0 0.00 0.00 0.00 75 1013.5
20260505011122 40 359 20.0 29.0 0.00 0.00 0.00 70 1013.5
20260505010616 41 12 18.0 32.0 0.00 0.00 0.00 67 1013.5
20260505010110 42 18 14.0 32.0 0.00 0.00 0.00 62 1013.2
20260505005603 43 44 13.0 27.0 0.00 0.00 0.00 59 1013.4
20260505005058 44 22 14.0 22.0 0.00 0.00 0.00 59 1013.5
20260505004552 44 4 12.0 22.0 0.00 0.00 0.00 58 1013.6
20260505004046 44 12 11.0 19.0 0.00 0.00 0.00 57 1013.4
20260505003800 44 23 9.0 18.0 0.00 0.00 0.00 57 1013.4
20260505003034 44 14 10.0 16.0 0.00 0.00 0.00 57 1013.4
20260505002528 44 38 10.0 16.0 0.00 0.00 0.00 57 1013.4
20260505002022 44 11 7.0 16.0 0.00 0.00 0.00 57 1013.4
20260505001516 44 35 8.0 18.0 0.00 0.00 0.00 61 1013.5
20260505001010 44 217 10.0 20.0 0.00 0.00 0.00 59 1013.6
20260505000509 45 256 8.0 20.0 0.00 0.00 0.00 58 1013.9
20260505000234 46 272 7.0 16.0 0.00 0.00 0.00 53 1013.8
20260504235509 46 273 6.0 12.0 0.00 0.00 0.00 51 1013.8
20260504235009 46 359 7.0 13.0 0.00 0.00 0.00 50 1013.8
20260504234510 46 8 9.0 16.0 0.00 0.00 0.00 51 1013.5
20260504234009 47 37 10.0 19.0 0.00 0.00 0.00 50 1013.2
20260504233509 47 359 10.0 19.0 0.00 0.00 0.00 50 1013.2
20260504233235 47 11 9.0 17.0 0.00 0.00 0.00 50 1013.1
20260504232509 48 27 11.0 18.0 0.00 0.00 0.00 48 1013.1
20260504232010 48 344 11.0 18.0 0.00 0.00 0.00 45 1013.2
20260504231509 49 18 10.0 17.0 0.00 0.00 0.00 45 1013.1
20260504231008 49 33 9.0 16.0 0.00 0.00 0.00 45 1013.2
20260504230509 50 28 7.0 15.0 0.00 0.00 0.00 43 1013.1
20260504230008 50 30 5.0 15.0 0.00 0.00 0.00 49 1013.1
20260504225510 48 354 6.0 14.0 0.00 0.00 0.00 50 1013.0
20260504225006 47 10 8.0 14.0 0.00 0.00 0.00 49 1013.1
20260504224729 47 334 10.0 19.0 0.00 0.00 0.00 51 1013.2
20260504224007 47 17 11.0 19.0 0.00 0.00 0.00 53 1013.2
20260504223506 46 354 11.0 19.0 0.00 0.00 0.00 52 1013.1
20260504223006 46 20 12.0 19.0 0.00 0.00 0.00 52 1013.1
20260504222507 47 10 12.0 22.0 0.00 0.00 0.00 52 1013.1
20260504222007 47 354 12.0 22.0 0.00 0.00 0.00 51 1013.1
20260504221507 47 21 13.0 22.0 0.00 0.00 0.00 49 1013.1
20260504221007 47 29 15.0 25.0 0.00 0.00 0.00 49 1013.1
20260504220508 47 8 17.0 28.0 0.00 0.00 0.00 48 1013.1
20260504220007 47 8 17.0 28.0 0.00 0.00 0.00 47 1013.2
20260504215722 48 339 16.0 26.0 0.00 0.00 0.00 46 1013.1
20260504215003 48 345 15.0 25.0 0.00 0.00 0.00 45 1013.0
20260504214503 50 39 10.0 25.0 0.00 0.00 0.00 41 1013.2
20260504214002 53 24 4.0 15.0 0.00 0.00 0.00 37 1013.4
20260504213502 54 133 4.0 8.0 0.00 0.00 0.00 34 1013.4
20260504213003 55 37 4.0 8.0 0.00 0.00 0.00 33 1013.4
20260504212731 55 27 3.0 8.0 0.00 0.00 0.00 35 1013.4
20260504212002 54 199 3.0 8.0 0.00 0.00 0.00 36 1013.5
20260504211504 54 58 3.0 7.0 0.00 0.00 0.00 33 1013.5
20260504211221 55 41 5.0 16.0 0.00 0.00 0.00 32 1013.6
20260504210727 55 257 7.0 16.0 0.00 0.00 0.00 32 1013.5
20260504205958 56 9 6.0 12.0 0.00 0.00 0.00 33 1013.5
20260504205458 57 133 4.0 9.0 0.00 0.00 0.00 32 1013.5
20260504205223 57 129 6.0 18.0 0.00 0.00 0.00 34 1013.6
20260504204459 56 154 7.0 18.0 0.00 0.00 0.00 34 1013.8
20260504203959 56 189 7.0 14.0 0.00 0.00 0.00 34 1013.8
20260504203716 55 152 7.0 14.0 0.00 0.00 0.00 35 1013.8
20260504203000 56 264 5.0 11.0 0.00 0.00 0.00 34 1013.9
20260504202721 55 233 4.0 11.0 0.00 0.00 0.00 33 1013.9
20260504201954 54 345 5.0 11.0 0.00 0.00 0.00 36 1013.8
20260504201454 53 309 6.0 16.0 0.00 0.00 0.00 36 1013.9
20260504200955 53 9 7.0 16.0 0.00 0.00 0.00 34 1013.9
20260504200714 53 314 7.0 13.0 0.00 0.00 0.00 35 1013.9
20260504195954 53 235 7.0 13.0 0.00 0.00 0.00 36 1013.9
20260504195454 53 274 7.0 13.0 0.00 0.00 0.00 36 1014.2
20260504194954 51 248 9.0 16.0 0.00 0.00 0.00 38 1014.2
20260504194456 51 241 12.0 21.0 0.00 0.00 0.00 39 1014.2
20260504193948 50 292 12.0 21.0 0.00 0.00 0.00 41 1014.3
20260504193443 50 266 13.0 26.0 0.00 0.00 0.00 39 1014.2
20260504192937 51 241 13.0 26.0 0.00 0.00 0.00 36 1014.3
20260504192431 53 305 8.0 23.0 0.00 0.00 0.00 33 1014.3
20260504191924 53 256 4.0 15.0 0.00 0.00 0.00 31 1014.3
20260504191419 53 237 3.0 6.0 0.00 0.00 0.00 32 1014.4
20260504190913 53 260 3.0 7.0 0.00 0.00 0.00 36 1014.4
20260504190625 53 9 3.0 8.0 0.00 0.00 0.00 29 1014.3
20260504185901 53 354 2.0 8.0 0.00 0.00 0.00 29 1014.4
20260504185355 53 48 3.0 8.0 0.00 0.00 0.00 30 1014.4
20260504184849 52 33 3.0 8.0 0.00 0.00 0.00 30 1014.4
20260504184343 52 35 2.0 9.0 0.00 0.00 0.00 31 1014.6
20260504184057 53 291 2.0 9.0 0.00 0.00 0.00 29 1014.6
20260504183552 53 44 4.0 9.0 0.00 0.00 0.00 31 1014.7
20260504182827 53 350 6.0 12.0 0.00 0.00 0.00 29 1014.8
20260504182319 53 220 7.0 14.0 0.00 0.00 0.00 29 1014.8
20260504181812 53 233 8.0 14.0 0.00 0.00 0.00 33 1014.8
20260504181307 53 218 7.0 13.0 0.00 0.00 0.00 34 1015.0
20260504180801 52 216 8.0 14.0 0.00 0.00 0.00 32 1015.1
20260504180255 53 328 8.0 18.0 0.00 0.00 0.00 31 1015.2
20260504175749 55 230 9.0 21.0 0.00 0.00 0.00 28 1015.1
20260504175242 54 277 8.0 21.0 0.00 0.00 0.00 32 1015.1
20260504174737 53 281 10.0 19.0 0.00 0.00 0.00 32 1015.4
20260504174231 53 335 11.0 20.0 0.00 0.00 0.00 32 1015.2
20260504173725 53 213 11.0 22.0 0.00 0.00 0.00 29 1015.2
20260504173219 53 330 9.0 22.0 0.00 0.00 0.00 33 1015.4
20260504172712 52 264 10.0 19.0 0.00 0.00 0.00 34 1015.4
20260504172207 53 261 9.0 18.0 0.00 0.00 0.00 32 1015.5
20260504171925 55 278 6.0 14.0 0.00 0.00 0.00 33 1015.5
20260504171155 55 274 4.0 13.0 0.00 0.00 0.00 35 1015.6
20260504170647 54 291 4.0 13.0 0.00 0.00 0.00 32 1015.6
20260504170143 54 310 5.0 13.0 0.00 0.00 0.00 32 1015.6
20260504160248 51 280 5.0 11.0 0.00 0.00 0.00 33 1016.0
20260504150931 50 301 5.0 10.0 0.00 0.00 0.00 34 1016.0
20260504150425 50 270 4.0 12.0 0.00 0.00 0.00 36 1015.9
20260504141325 49 316 4.0 9.0 0.00 0.00 0.00 32 1015.9
20260504140821 49 299 4.0 9.0 0.00 0.00 0.00 33 1015.8
20260504140313 49 354 5.0 9.0 0.00 0.00 0.00 32 1015.8
20260504130707 45 285 5.0 9.0 0.00 0.00 0.00 38 1015.8
20260504130201 45 312 4.0 8.0 0.00 0.00 0.00 38 1015.8